• Em Portugal
  • Lista de países
  • Para 7 dias
  • Temperatura da água
  • Mapas de satélite
  • Mapa do tempo
  • Widgets de tempo
  • user-avatar
    Iniciar Sessão

    Previsão horária em Bregenz

    Hoje, 17 Agosto, Sexta-feira

    Tempo Temperatura Precipitação Vento Pressão Humidade
    00:00 +13°C° 0 mm 1 m/s 647 mmHg 86%
    01:00 +13°C° 0 mm 2 m/s 647 mmHg 86%
    02:00 +13°C° 0 mm 2 m/s 647 mmHg 86%
    03:00 +13°C° 0 mm 1 m/s 647 mmHg 87%
    04:00 +12°C° 0 mm 1 m/s 647 mmHg 87%
    05:00 +13°C° 0 mm 1 m/s 647 mmHg 85%
    06:00 +14°C° 0 mm 1 m/s 648 mmHg 83%
    07:00 +15°C° 0 mm 1 m/s 648 mmHg 77%
    08:00 +18°C° 0 mm 1 m/s 649 mmHg 69%
    09:00 +20°C° 0 mm 1 m/s 649 mmHg 60%
    10:00 +22°C° 0 mm 1 m/s 650 mmHg 52%
    11:00 +21°C° 0 mm 2 m/s 650 mmHg 51%
    12:00 +23°C° 0 mm 2 m/s 650 mmHg 49%
    13:00 +24°C° 0 mm 2 m/s 650 mmHg 48%
    14:00 +23°C° 0,3 mm 2 m/s 650 mmHg 53%
    15:00 +21°C° 0,3 mm 2 m/s 650 mmHg 57%
    16:00 +22°C° 0,3 mm 1 m/s 650 mmHg 62%
    17:00 +20°C° 0,6 mm 1 m/s 649 mmHg 70%
    18:00 +19°C° 0,6 mm 1 m/s 649 mmHg 78%
    19:00 +16°C° 0,6 mm 1 m/s 649 mmHg 86%
    20:00 +15°C° 0,8 mm 1 m/s 649 mmHg 88%
    21:00 +14°C° 0,8 mm 1 m/s 649 mmHg 91%
    22:00 +13°C° 0,8 mm 1 m/s 649 mmHg 93%
    23:00 +12°C° 0,3 mm 1 m/s 649 mmHg 94%

    Amanhã, 18 Agosto, Sábado

    Tempo Temperatura Precipitação Vento Pressão Humidade
    00:00 +12°C° 0,3 mm 1 m/s 649 mmHg 94%
    01:00 +12°C° 0,3 mm 1 m/s 649 mmHg 95%
    02:00 +11°C° 0 mm 1 m/s 649 mmHg 95%
    03:00 +11°C° 0 mm 1 m/s 649 mmHg 95%
    04:00 +11°C° 0 mm 1 m/s 650 mmHg 96%
    05:00 +11°C° 0 mm 0 m/s 650 mmHg 95%
    06:00 +12°C° 0 mm 0 m/s 650 mmHg 94%
    07:00 +12°C° 0 mm 0 m/s 650 mmHg 93%
    08:00 +15°C° 0 mm 1 m/s 651 mmHg 88%
    09:00 +16°C° 0 mm 1 m/s 651 mmHg 82%
    10:00 +18°C° 0 mm 1 m/s 652 mmHg 77%
    11:00 +18°C° 0,1 mm 1 m/s 652 mmHg 77%
    12:00 +18°C° 0,1 mm 2 m/s 652 mmHg 76%
    13:00 +18°C° 0,1 mm 2 m/s 652 mmHg 75%
    14:00 +18°C° 0,2 mm 2 m/s 651 mmHg 77%
    15:00 +17°C° 0,2 mm 2 m/s 651 mmHg 80%
    16:00 +17°C° 0,2 mm 2 m/s 651 mmHg 82%
    17:00 +16°C° 0,2 mm 2 m/s 651 mmHg 86%
    18:00 +16°C° 0,2 mm 1 m/s 651 mmHg 90%
    19:00 +15°C° 0,2 mm 1 m/s 651 mmHg 93%
    20:00 +14°C° 0 mm 1 m/s 651 mmHg 94%
    21:00 +14°C° 0 mm 1 m/s 651 mmHg 96%
    22:00 +12°C° 0 mm 0 m/s 652 mmHg 97%
    23:00 +12°C° 0 mm 0 m/s 651 mmHg 97%

    Depois de amanhã, 19 Agosto, Domingo

    Tempo Temperatura Precipitação Vento Pressão Humidade
    00:00 +11°C° 0 mm 0 m/s 651 mmHg 96%
    01:00 +11°C° 0 mm 0 m/s 651 mmHg 96%
    02:00 +11°C° 0 mm 0 m/s 651 mmHg 96%
    03:00 +11°C° 0 mm 0 m/s 651 mmHg 96%
    04:00 +10°C° 0 mm 0 m/s 651 mmHg 96%
    05:00 +11°C° 0 mm 0 m/s 651 mmHg 94%
    06:00 +12°C° 0 mm 0 m/s 651 mmHg 92%
    07:00 +13°C° 0 mm 0 m/s 652 mmHg 90%
    08:00 +16°C° 0 mm 1 m/s 652 mmHg 84%
    09:00 +18°C° 0 mm 1 m/s 653 mmHg 77%
    10:00 +20°C° 0 mm 1 m/s 653 mmHg 70%
    11:00 +20°C° 0,4 mm 1 m/s 653 mmHg 70%
    12:00 +20°C° 0,4 mm 2 m/s 653 mmHg 71%
    13:00 +20°C° 0,4 mm 2 m/s 653 mmHg 71%
    14:00 +20°C° 0,8 mm 2 m/s 652 mmHg 73%
    15:00 +20°C° 0,8 mm 2 m/s 652 mmHg 75%
    16:00 +20°C° 0,8 mm 2 m/s 652 mmHg 77%
    17:00 +19°C° 0,7 mm 1 m/s 652 mmHg 82%
    18:00 +18°C° 0,7 mm 1 m/s 652 mmHg 86%
    19:00 +16°C° 0,7 mm 1 m/s 651 mmHg 91%
    20:00 +15°C° 0,1 mm 1 m/s 651 mmHg 92%
    21:00 +14°C° 0,1 mm 1 m/s 651 mmHg 93%
    22:00 +13°C° 0,1 mm 1 m/s 651 mmHg 94%
    23:00 +13°C° 0 mm 1 m/s 651 mmHg 95%

    20 Agosto, Segunda-feira

    Tempo Temperatura Precipitação Vento Pressão Humidade
    00:00 +13°C° 0 mm 1 m/s 651 mmHg 95%
    01:00 +13°C° 0 mm 1 m/s 651 mmHg 95%
    02:00 +12°C° 0 mm 1 m/s 650 mmHg 95%
    03:00 +12°C° 0 mm 1 m/s 650 mmHg 95%
    04:00 +12°C° 0 mm 1 m/s 650 mmHg 95%
    05:00 +12°C° 0 mm 1 m/s 650 mmHg 94%
    06:00 +13°C° 0 mm 1 m/s 650 mmHg 92%
    07:00 +14°C° 0 mm 1 m/s 651 mmHg 91%
    08:00 +16°C° 0 mm 1 m/s 651 mmHg 84%
    09:00 +19°C° 0 mm 1 m/s 652 mmHg 77%
    10:00 +21°C° 0 mm 1 m/s 652 mmHg 70%
    11:00 +21°C° 0,2 mm 1 m/s 652 mmHg 68%
    12:00 +22°C° 0,2 mm 1 m/s 652 mmHg 66%
    13:00 +21°C° 0,2 mm 2 m/s 652 mmHg 65%
    14:00 +21°C° 0,4 mm 2 m/s 652 mmHg 67%
    15:00 +21°C° 0,4 mm 2 m/s 651 mmHg 68%
    16:00 +22°C° 0,4 mm 1 m/s 651 mmHg 70%
    17:00 +20°C° 0,4 mm 1 m/s 651 mmHg 76%
    18:00 +19°C° 0,4 mm 1 m/s 651 mmHg 82%
    19:00 +18°C° 0,4 mm 1 m/s 651 mmHg 87%
    20:00 +16°C° 0 mm 1 m/s 651 mmHg 89%
    21:00 +15°C° 0 mm 1 m/s 651 mmHg 91%
    22:00 +14°C° 0 mm 1 m/s 651 mmHg 93%
    23:00 +13°C° 0 mm 1 m/s 651 mmHg 93%

    21 Agosto, Terça-feira

    Tempo Temperatura Precipitação Vento Pressão Humidade
    00:00 +13°C° 0 mm 1 m/s 650 mmHg 93%
    01:00 +12°C° 0 mm 1 m/s 650 mmHg 93%
    02:00 +12°C° 0 mm 1 m/s 650 mmHg 93%
    03:00 +12°C° 0 mm 1 m/s 650 mmHg 92%
    04:00 +11°C° 0 mm 1 m/s 650 mmHg 92%
    05:00 +12°C° 0 mm 1 m/s 650 mmHg 90%
    06:00 +13°C° 0 mm 1 m/s 650 mmHg 88%
    07:00 +14°C° 0 mm 1 m/s 651 mmHg 86%
    08:00 +16°C° 0 mm 1 m/s 651 mmHg 78%
    09:00 +19°C° 0 mm 1 m/s 652 mmHg 71%
    10:00 +21°C° 0 mm 1 m/s 652 mmHg 63%
    11:00 +22°C° 0 mm 1 m/s 652 mmHg 60%
    12:00 +23°C° 0 mm 2 m/s 652 mmHg 57%
    13:00 +23°C° 0 mm 2 m/s 652 mmHg 54%
    14:00 +23°C° 0,1 mm 2 m/s 652 mmHg 57%
    15:00 +23°C° 0,1 mm 2 m/s 652 mmHg 60%
    16:00 +23°C° 0,1 mm 2 m/s 652 mmHg 62%
    17:00 +20°C° 0,2 mm 2 m/s 651 mmHg 70%
    18:00 +18°C° 0,2 mm 2 m/s 651 mmHg 79%
    19:00 +18°C° 0,2 mm 1 m/s 650 mmHg 87%
    20:00 +16°C° 0,1 mm 1 m/s 650 mmHg 89%
    21:00 +15°C° 0,1 mm 1 m/s 650 mmHg 92%
    22:00 +14°C° 0,1 mm 1 m/s 650 mmHg 94%
    23:00 +13°C° 0 mm 1 m/s 650 mmHg 94%

    22 Agosto, Quarta-feira

    Tempo Temperatura Precipitação Vento Pressão Humidade
    00:00 +13°C° 0 mm 1 m/s 650 mmHg 94%
    01:00 +13°C° 0 mm 1 m/s 650 mmHg 94%
    02:00 +13°C° 0,1 mm 1 m/s 650 mmHg 93%
    03:00 +12°C° 0,1 mm 1 m/s 650 mmHg 93%
    04:00 +12°C° 0,1 mm 1 m/s 649 mmHg 93%
    05:00 +13°C° 0 mm 1 m/s 650 mmHg 91%
    06:00 +13°C° 0 mm 0 m/s 650 mmHg 89%
    07:00 +14°C° 0 mm 0 m/s 650 mmHg 87%
    08:00 +18°C° 0,1 mm 1 m/s 651 mmHg 80%
    09:00 +19°C° 0,1 mm 1 m/s 651 mmHg 74%
    10:00 +21°C° 0,1 mm 1 m/s 652 mmHg 67%
    11:00 +21°C° 0,3 mm 2 m/s 652 mmHg 65%
    12:00 +21°C° 0,3 mm 2 m/s 652 mmHg 64%
    13:00 +23°C° 0,3 mm 2 m/s 652 mmHg 62%
    14:00 +21°C° 0,8 mm 2 m/s 651 mmHg 66%
    15:00 +21°C° 0,8 mm 2 m/s 651 mmHg 71%
    16:00 +20°C° 0,8 mm 2 m/s 651 mmHg 75%
    17:00 +20°C° 0,7 mm 1 m/s 651 mmHg 79%
    18:00 +18°C° 0,7 mm 1 m/s 650 mmHg 84%
    19:00 +16°C° 0,7 mm 1 m/s 650 mmHg 88%
    20:00 +15°C° 0,2 mm 1 m/s 650 mmHg 89%
    21:00 +14°C° 0,2 mm 1 m/s 650 mmHg 90%
    22:00 +14°C° 0,2 mm 1 m/s 650 mmHg 91%
    23:00 +13°C° 0 mm 1 m/s 650 mmHg 91%
    Mostrar mais